When you browse on this site, cookies collect data to enhance your experience and personalize the content and advertising you see.
Visit our Privacy Policy to learn more. By continuing to use the site, you agree to this use of cookies and data.
  • în România
  • Lista ţărilor
  • Pe 7 zile
  • Temperatura apei
  • Hartă satelitară
  • Meteo pe hartă
  • Widget-uri
  • user-avatar
    Intrare

    Meteo pe oră la Konstantyna

    Astăzi, 22 Ianuarie, Marţi

    Timp Temperatura Precipitaţii Vânt Presiune Umiditate
    00:00 +4°C° 0 mm 1 m/s 707 mmHg 96%
    01:00 +4°C° 0 mm 1 m/s 707 mmHg 96%
    02:00 +4°C° 0 mm 1 m/s 707 mmHg 95%
    03:00 +4°C° 0 mm 1 m/s 707 mmHg 95%
    04:00 +3°C° 0 mm 1 m/s 707 mmHg 95%
    05:00 +3°C° 0 mm 1 m/s 707 mmHg 94%
    06:00 +3°C° 0 mm 1 m/s 706 mmHg 94%
    07:00 +4°C° 0 mm 1 m/s 707 mmHg 88%
    08:00 +6°C° 0 mm 1 m/s 707 mmHg 82%
    09:00 +7°C° 0 mm 1 m/s 708 mmHg 77%
    10:00 +7°C° 0 mm 2 m/s 707 mmHg 70%
    11:00 +8°C° 0 mm 2 m/s 707 mmHg 63%
    12:00 +9°C° 0 mm 2 m/s 707 mmHg 56%
    13:00 +9°C° 0.3 mm 2 m/s 706 mmHg 57%
    14:00 +9°C° 0.3 mm 3 m/s 706 mmHg 58%
    15:00 +9°C° 0.3 mm 3 m/s 705 mmHg 59%
    16:00 +7°C° 0.1 mm 2 m/s 705 mmHg 68%
    17:00 +7°C° 0.1 mm 1 m/s 704 mmHg 77%
    18:00 +5°C° 0.1 mm 1 m/s 704 mmHg 86%
    19:00 +5°C° 0 mm 1 m/s 704 mmHg 86%
    20:00 +4°C° 0 mm 1 m/s 704 mmHg 87%
    21:00 +4°C° 0 mm 1 m/s 704 mmHg 88%
    22:00 +4°C° 0 mm 1 m/s 703 mmHg 86%
    23:00 +3°C° 0 mm 2 m/s 703 mmHg 84%

    Mâine, 23 Ianuarie, Miercuri

    Timp Temperatura Precipitaţii Vânt Presiune Umiditate
    00:00 +4°C° 0 mm 2 m/s 703 mmHg 82%
    01:00 +3°C° 0 mm 2 m/s 702 mmHg 79%
    02:00 +3°C° 0 mm 2 m/s 702 mmHg 77%
    03:00 +2°C° 0 mm 3 m/s 701 mmHg 75%
    04:00 +2°C° 0 mm 3 m/s 700 mmHg 76%
    05:00 +2°C° 0 mm 3 m/s 700 mmHg 78%
    06:00 +1°C° 0 mm 3 m/s 700 mmHg 79%
    07:00 +2°C° 0.1 mm 3 m/s 700 mmHg 77%
    08:00 +3°C° 0.1 mm 4 m/s 700 mmHg 76%
    09:00 +4°C° 0.1 mm 4 m/s 700 mmHg 74%
    10:00 +5°C° 0 mm 5 m/s 700 mmHg 70%
    11:00 +5°C° 0 mm 6 m/s 700 mmHg 65%
    12:00 +6°C° 0 mm 7 m/s 699 mmHg 61%
    13:00 +7°C° 0.1 mm 6 m/s 699 mmHg 63%
    14:00 +7°C° 0.1 mm 6 m/s 698 mmHg 65%
    15:00 +5°C° 0.1 mm 6 m/s 698 mmHg 67%
    16:00 +5°C° 0.2 mm 6 m/s 697 mmHg 69%
    17:00 +5°C° 0.2 mm 6 m/s 696 mmHg 70%
    18:00 +4°C° 0.2 mm 7 m/s 695 mmHg 72%
    19:00 +4°C° 1.4 mm 7 m/s 696 mmHg 78%
    20:00 +4°C° 1.4 mm 7 m/s 696 mmHg 84%
    21:00 +4°C° 1.4 mm 7 m/s 696 mmHg 89%
    22:00 +4°C° 2.1 mm 6 m/s 695 mmHg 90%
    23:00 +3°C° 2.1 mm 5 m/s 695 mmHg 90%

    Poimâine, 24 Ianuarie, Joi

    Timp Temperatura Precipitaţii Vânt Presiune Umiditate
    00:00 +4°C° 2.1 mm 4 m/s 695 mmHg 90%
    01:00 +2°C° 2.4 mm 5 m/s 694 mmHg 91%
    02:00 +1°C° 2.4 mm 6 m/s 694 mmHg 91%
    03:00 -1°C° 2.4 mm 7 m/s 693 mmHg 92%
    04:00 -1°C° 1.2 mm 6 m/s 693 mmHg 93%
    05:00 -2°C° 1.2 mm 6 m/s 693 mmHg 94%
    06:00 -1°C° 1.2 mm 5 m/s 693 mmHg 95%
    07:00 -2°C° 0.8 mm 6 m/s 693 mmHg 92%
    08:00 -2°C° 0.8 mm 8 m/s 693 mmHg 89%
    09:00 -3°C° 0.8 mm 10 m/s 694 mmHg 86%
    10:00 -3°C° 0.9 mm 11 m/s 693 mmHg 88%
    11:00 -2°C° 0.9 mm 12 m/s 692 mmHg 91%
    12:00 -2°C° 0.9 mm 13 m/s 692 mmHg 93%
    13:00 -2°C° 5.2 mm 13 m/s 692 mmHg 95%
    14:00 -2°C° 5.2 mm 12 m/s 693 mmHg 96%
    15:00 -2°C° 5.2 mm 12 m/s 693 mmHg 98%
    16:00 -1°C° 6.2 mm 11 m/s 694 mmHg 98%
    17:00 0°C° 6.2 mm 10 m/s 695 mmHg 99%
    18:00 0°C° 6.2 mm 9 m/s 696 mmHg 99%
    19:00 0°C° 7 mm 8 m/s 697 mmHg 99%
    20:00 0°C° 7 mm 8 m/s 698 mmHg 99%
    21:00 +1°C° 7 mm 8 m/s 699 mmHg 99%
    22:00 +1°C° 3 mm 8 m/s 700 mmHg 99%
    23:00 +1°C° 3 mm 8 m/s 700 mmHg 99%

    25 Ianuarie, Vineri

    Timp Temperatura Precipitaţii Vânt Presiune Umiditate
    00:00 0°C° 3 mm 8 m/s 701 mmHg 98%
    01:00 0°C° 0.3 mm 7 m/s 701 mmHg 99%
    02:00 +1°C° 0.3 mm 6 m/s 702 mmHg 99%
    03:00 +1°C° 0.3 mm 5 m/s 702 mmHg 99%
    04:00 +1°C° 0.2 mm 5 m/s 702 mmHg 98%
    05:00 +1°C° 0.2 mm 5 m/s 703 mmHg 98%
    06:00 +1°C° 0.2 mm 5 m/s 703 mmHg 98%
    07:00 +1°C° 0.3 mm 6 m/s 704 mmHg 97%
    08:00 +1°C° 0.3 mm 6 m/s 705 mmHg 97%
    09:00 0°C° 0.3 mm 7 m/s 705 mmHg 96%
    10:00 0°C° 0.2 mm 8 m/s 706 mmHg 94%
    11:00 0°C° 0.2 mm 9 m/s 706 mmHg 93%
    12:00 -1°C° 0.2 mm 11 m/s 706 mmHg 91%
    13:00 0°C° 0.1 mm 10 m/s 706 mmHg 91%
    14:00 +1°C° 0.1 mm 9 m/s 706 mmHg 91%
    15:00 +1°C° 0.1 mm 8 m/s 706 mmHg 91%
    16:00 0°C° 0.1 mm 7 m/s 706 mmHg 91%
    17:00 +1°C° 0.1 mm 6 m/s 707 mmHg 91%
    18:00 +1°C° 0.1 mm 6 m/s 707 mmHg 92%
    19:00 +1°C° 0.1 mm 5 m/s 707 mmHg 93%
    20:00 0°C° 0.1 mm 5 m/s 708 mmHg 93%
    21:00 0°C° 0.1 mm 4 m/s 708 mmHg 94%
    22:00 +1°C° 0.1 mm 4 m/s 708 mmHg 94%
    23:00 +1°C° 0.1 mm 4 m/s 708 mmHg 95%

    26 Ianuarie, Sâmbătă

    Timp Temperatura Precipitaţii Vânt Presiune Umiditate
    00:00 +1°C° 0.1 mm 4 m/s 709 mmHg 95%
    01:00 +1°C° 0 mm 3 m/s 708 mmHg 94%
    02:00 +1°C° 0 mm 3 m/s 708 mmHg 93%
    03:00 +2°C° 0 mm 2 m/s 708 mmHg 93%
    04:00 +2°C° 0.1 mm 2 m/s 708 mmHg 94%
    05:00 +3°C° 0.1 mm 2 m/s 708 mmHg 95%
    06:00 +3°C° 0.1 mm 2 m/s 709 mmHg 97%
    07:00 +3°C° 0.1 mm 2 m/s 709 mmHg 97%
    08:00 +3°C° 0.1 mm 2 m/s 709 mmHg 98%
    09:00 +4°C° 0.1 mm 2 m/s 710 mmHg 98%
    10:00 +5°C° 0.1 mm 2 m/s 710 mmHg 97%
    11:00 +4°C° 0.1 mm 3 m/s 710 mmHg 96%
    12:00 +5°C° 0.1 mm 3 m/s 710 mmHg 94%
    13:00 +5°C° 0.1 mm 3 m/s 710 mmHg 92%
    14:00 +7°C° 0.1 mm 3 m/s 710 mmHg 90%
    15:00 +7°C° 0.1 mm 2 m/s 710 mmHg 88%
    16:00 +6°C° 0 mm 2 m/s 710 mmHg 89%
    17:00 +5°C° 0 mm 2 m/s 709 mmHg 90%
    18:00 +4°C° 0 mm 2 m/s 709 mmHg 91%
    19:00 +4°C° 0 mm 2 m/s 709 mmHg 90%
    20:00 +4°C° 0 mm 2 m/s 709 mmHg 89%
    21:00 +3°C° 0 mm 2 m/s 709 mmHg 88%
    22:00 +3°C° 0 mm 2 m/s 709 mmHg 86%
    23:00 +3°C° 0 mm 2 m/s 709 mmHg 85%

    27 Ianuarie, Duminică

    Timp Temperatura Precipitaţii Vânt Presiune Umiditate
    00:00 +3°C° 0 mm 2 m/s 708 mmHg 83%
    01:00 +3°C° 0 mm 2 m/s 708 mmHg 82%
    02:00 +3°C° 0 mm 2 m/s 707 mmHg 81%
    03:00 +3°C° 0 mm 2 m/s 707 mmHg 80%
    04:00 +3°C° 0 mm 2 m/s 707 mmHg 79%
    05:00 +3°C° 0 mm 2 m/s 707 mmHg 79%
    06:00 +3°C° 0 mm 2 m/s 706 mmHg 79%
    07:00 +4°C° 0 mm 2 m/s 707 mmHg 79%
    08:00 +5°C° 0 mm 2 m/s 707 mmHg 79%
    09:00 +6°C° 0 mm 2 m/s 707 mmHg 79%
    10:00 +8°C° 0 mm 2 m/s 707 mmHg 75%
    11:00 +9°C° 0 mm 3 m/s 707 mmHg 71%
    12:00 +10°C° 0 mm 3 m/s 706 mmHg 67%
    13:00 +10°C° 0 mm 3 m/s 706 mmHg 70%
    14:00 +10°C° 0 mm 3 m/s 706 mmHg 72%
    15:00 +10°C° 0 mm 4 m/s 705 mmHg 75%
    16:00 +8°C° 0.1 mm 3 m/s 705 mmHg 80%
    17:00 +7°C° 0.1 mm 2 m/s 706 mmHg 86%
    18:00 +5°C° 0.1 mm 2 m/s 706 mmHg 92%
    19:00 +6°C° 0 mm 1 m/s 706 mmHg 93%
    20:00 +6°C° 0 mm 1 m/s 706 mmHg 95%
    21:00 +5°C° 0 mm 1 m/s 706 mmHg 96%
    22:00 +4°C° 0.2 mm 0 m/s 706 mmHg 97%
    23:00 +5°C° 0.2 mm 0 m/s 706 mmHg 97%
    Arată mai mult